Weather History for Townsville Amo, Queensland

Change the Weather History Date:

Wednesday, October 23, 2013

  Actual Average Record
Temperature  
Mean Temperature 79 °F -  
Max Temperature 85 °F 87 °F - ()
Min Temperature 73 °F 73 °F - ()
Cooling Degree Days 14    
Growing Degree Days 29 (Base 50)    
Moisture  
Dew Point 67 °F    
Average Humidity 66    
Maximum Humidity 88    
Minimum Humidity 42    
Precipitation  
Precipitation 0.00 in 0.06 in - ()
Sea Level Pressure  
Sea Level Pressure 29.93 in    
Wind  
Wind Speed 11 mph ()    
Max Wind Speed 20 mph    
Max Gust Speed -    
Visibility 7.7 miles    
Events Rain    
T = Trace of Precipitation, MM = Missing Value Source: Averaged Metar Reports

Daily Weather History Graph

Daily Weather History Graph

Search for Another Location

Airport:

Trip Planner

Search our weather history database for the weather conditions in past years. The results will help you decide how hot, cold, wet, or windy it might be!

Date:

Astronomy

Oct. 23, 2013 Rise Set
Actual Time 5:37 AM AEST 6:17 PM AEST
Civil Twilight 5:15 AM AEST 6:39 PM AEST
Nautical Twilight 4:48 AM AEST 7:06 PM AEST
Astronomical Twilight 4:22 AM AEST 7:32 PM AEST
Moon 10:00 PM AEST (10/23) 8:36 AM AEST (10/23)
Length of Visible Light 13h 24m
Length of Day
12h 39m
Waning Gibbous, 84% of the Moon is Illuminated
Oct 23
Waning Gibbous
Oct 27
Last Quarter
Nov 3
New
Nov 10
First Quarter
Nov 18
Full

Hourly Weather History & Observations

Time (AEST) Temp. Heat Index Dew Point Humidity Pressure Visibility Wind Dir Wind Speed Gust Speed Precip Events Conditions
12:00 AM 78 °F - 68 °F 64% 29.96 in - East 10.4 mph - -   Overcast
12:00 AM 77.0 °F - 68.0 °F 74% 29.95 in 6.2 mi East 10.4 mph - N/A   Overcast
12:30 AM 77.0 °F - 68.0 °F 74% 29.95 in 6.2 mi East 12.7 mph - N/A   Mostly Cloudy
1:00 AM 77 °F - 67 °F 64% 29.96 in - East 10.4 mph - -  
1:00 AM 77.0 °F - 68.0 °F 74% 29.95 in 6.2 mi East 10.4 mph - N/A   Scattered Clouds
1:30 AM 77.0 °F - 68.0 °F 74% 29.92 in 6.2 mi East 10.4 mph - N/A   Mostly Cloudy
2:00 AM 77.0 °F - 68.0 °F 74% 29.92 in 6.2 mi East 10.4 mph - N/A   Mostly Cloudy
2:30 AM 77.0 °F - 69.8 °F 78% 29.92 in 6.2 mi East 10.4 mph - N/A   Overcast
3:00 AM 77 °F - 69 °F 70% 29.92 in - East 8.1 mph - -   Overcast
3:00 AM 77.0 °F - 69.8 °F 78% 29.92 in 6.2 mi East 8.1 mph - N/A Rain Light Rain Showers
3:30 AM 77.0 °F - 66.2 °F 69% 29.92 in 6.2 mi East 11.5 mph - N/A   Overcast
4:00 AM 76 °F - 68 °F 69% 29.94 in - ESE 10.4 mph - -  
4:00 AM 77.0 °F - 68.0 °F 74% 29.92 in 6.2 mi ESE 10.4 mph - N/A   Overcast
4:30 AM 77.0 °F - 66.2 °F 69% 29.92 in 6.2 mi East 11.5 mph - N/A   Overcast
5:00 AM 77.0 °F - 66.2 °F 69% 29.92 in 6.2 mi ESE 10.4 mph - N/A   Mostly Cloudy
5:30 AM 75.2 °F - 68.0 °F 78% 29.95 in 6.2 mi ESE 8.1 mph - N/A   Scattered Clouds
6:00 AM 75 °F - 68 °F 74% 29.96 in 16 mi ESE 8.1 mph - -   Partly Cloudy
6:00 AM 75.2 °F - 68.0 °F 78% 29.95 in 6.2 mi ESE 8.1 mph - N/A   Scattered Clouds
6:30 AM 77.0 °F - 68.0 °F 74% 29.95 in 6.2 mi SE 6.9 mph - N/A   Scattered Clouds
7:00 AM 78 °F - 68 °F 63% 29.98 in - SE 6.9 mph - -  
7:00 AM 78.8 °F - 68.0 °F 69% 29.95 in 6.2 mi SE 6.9 mph - N/A   Scattered Clouds
7:30 AM 78.8 °F - 68.0 °F 69% 29.98 in 6.2 mi East 12.7 mph - N/A   Mostly Cloudy
8:00 AM 80.6 °F 82.7 °F 66.2 °F 61% 29.98 in 6.2 mi ENE 11.5 mph - N/A   Scattered Clouds
8:30 AM 80.6 °F 82.7 °F 66.2 °F 61% 29.98 in 6.2 mi ENE 15.0 mph - N/A   Scattered Clouds
9:00 AM 83 °F - 65 °F 46% 29.99 in 19 mi ENE 17.3 mph - -   Haze
9:00 AM 82.4 °F 84.6 °F 66.2 °F 58% 29.98 in 6.2 mi ENE 17.3 mph - N/A   Scattered Clouds
9:30 AM 82.4 °F 84.6 °F 66.2 °F 58% 29.98 in 6.2 mi ENE 16.1 mph - N/A   Scattered Clouds
10:00 AM 83 °F - 66 °F 48% 29.99 in - ENE 15.0 mph - -  
10:00 AM 82.4 °F 84.6 °F 66.2 °F 58% 29.98 in 6.2 mi ENE 15.0 mph - N/A   Scattered Clouds
10:30 AM 82.4 °F 84.6 °F 66.2 °F 58% 29.98 in 6.2 mi ENE 16.1 mph - N/A   Scattered Clouds
11:00 AM 84.2 °F 86.6 °F 66.2 °F 55% 29.95 in 6.2 mi NE 16.1 mph - N/A   Scattered Clouds
11:30 AM 84.2 °F 86.6 °F 66.2 °F 55% 29.95 in 6.2 mi ENE 17.3 mph - N/A   Scattered Clouds
12:00 PM 85 °F - 65 °F 42% 29.94 in 19 mi NE 18.4 mph - -   Haze
12:00 PM 84.2 °F 86.6 °F 66.2 °F 55% 29.95 in 6.2 mi NE 18.4 mph - N/A   Partly Cloudy
12:30 PM 84.2 °F 85.6 °F 64.4 °F 51% 29.92 in 6.2 mi ENE 18.4 mph - N/A   Partly Cloudy
1:00 PM 83 °F - 67 °F 49% 29.93 in - ENE 17.3 mph - -  
1:00 PM 84.2 °F 86.6 °F 66.2 °F 55% 29.92 in 6.2 mi ENE 17.3 mph - N/A   Partly Cloudy
1:30 PM 84.2 °F 86.6 °F 66.2 °F 55% 29.89 in 6.2 mi ENE 17.3 mph - N/A   Partly Cloudy
2:00 PM 84.2 °F 86.6 °F 66.2 °F 55% 29.89 in 6.2 mi ENE 18.4 mph - N/A   Partly Cloudy
2:30 PM 84.2 °F 85.6 °F 64.4 °F 51% 29.86 in 6.2 mi ENE 17.3 mph - N/A   Partly Cloudy
3:00 PM 83 °F - 66 °F 48% 29.87 in 19 mi ENE 18.4 mph - -   Haze
3:00 PM 84.2 °F 86.6 °F 66.2 °F 55% 29.86 in 6.2 mi ENE 18.4 mph - N/A   Partly Cloudy
3:30 PM 82.4 °F 84.6 °F 66.2 °F 58% 29.86 in 6.2 mi ENE 19.6 mph - N/A   Partly Cloudy
4:00 PM 82 °F - 66 °F 49% 29.87 in - ENE 17.3 mph - -  
4:00 PM 82.4 °F 84.6 °F 66.2 °F 58% 29.86 in 6.2 mi ENE 17.3 mph - N/A   Partly Cloudy
4:30 PM 82.4 °F 85.4 °F 68.0 °F 62% 29.86 in 6.2 mi ENE 16.1 mph - N/A   Partly Cloudy
5:00 PM 80.6 °F 83.2 °F 68.0 °F 65% 29.86 in 6.2 mi ENE 17.3 mph - N/A   Partly Cloudy
5:30 PM 80.6 °F 83.2 °F 68.0 °F 65% 29.86 in 6.2 mi ENE 15.0 mph - N/A   Partly Cloudy
6:00 PM 79 °F - 67 °F 60% 29.88 in 19 mi ENE 12.7 mph - -   Haze
6:00 PM 78.8 °F - 68.0 °F 69% 29.86 in 6.2 mi ENE 12.7 mph - N/A   Partly Cloudy
6:30 PM 78.8 °F - 66.2 °F 65% 29.89 in 6.2 mi NE 10.4 mph - N/A   Partly Cloudy
7:00 PM 78 °F - 67 °F 61% 29.91 in - NE 10.4 mph - -  
7:00 PM 77.0 °F - 66.2 °F 69% 29.89 in 6.2 mi NE 10.4 mph - N/A   Partly Cloudy
7:30 PM 77.0 °F - 68.0 °F 74% 29.89 in - NE 9.2 mph - N/A   Clear
8:00 PM 77.0 °F - 68.0 °F 74% 29.92 in - NE 8.1 mph - N/A   Clear
8:30 PM 75.2 °F - 68.0 °F 78% 29.92 in - Calm Calm - N/A   Clear
9:00 PM 75 °F - 67 °F 70% 29.93 in 19 mi North 2.3 mph - -   Haze
9:00 PM 75.2 °F - 68.0 °F 78% 29.92 in - North 2.3 mph - N/A   Clear
9:30 PM 73.4 °F - 66.2 °F 78% 29.92 in - Calm Calm - N/A   Clear
10:00 PM 73 °F - 67 °F 78% 29.95 in - Calm Calm - -  
10:00 PM 73.4 °F - 68.0 °F 83% 29.92 in 6.2 mi Calm Calm - N/A   Partly Cloudy
10:30 PM 73.4 °F - 69.8 °F 88% 29.92 in 6.2 mi Calm Calm - N/A   Partly Cloudy
11:00 PM 73.4 °F - 68.0 °F 83% 29.95 in 6.2 mi Calm Calm - N/A   Unknown
11:30 PM 73.4 °F - 68.0 °F 83% 29.92 in 6.2 mi NNE 5.8 mph - N/A   Unknown